User: anonymous   Login
Location: Oak Glen
(34.0495°N, 116.9470°E)
Time: 17:48:17
(UTC-07:00)
Language:

BUGSAT 1 - Orbit

View from above orbital plane
View from above orbital plane
View from above satellite
View from above satellite

Ground track
Ground track

The orbit data is extracted from the following two-line orbital elements,

1 40014U 14033E   18232.41950693 -.00000325  00000-0 -23663-4 0  9999
2 40014  97.9792 168.9242 0031968 345.0432  14.9863 14.95084935227330
Epoch (UTC): 20 August 2018 10:04:05
Eccentricity: 0.0031968
inclination: 97.9792°
perigee height: 560 km
apogee height: 604 km
right ascension of ascending node: 168.9242°
argument of perigee: 345.0432°
revolutions per day: 14.95084935
mean anomaly at epoch: 14.9863°
orbit number at epoch: 22733

The dashed part of the orbit path shows where the satellite is in the earth's shadow,  

DLR